Simultaneous Nadir Overpasses (SNOs) Predictions

Prediction of SNOs between GOES-14 and AQUA Satellite Orbit:

Table of predicted SNOs for the next 14.0 days since TLE Epoch: 10/21/2023
Index Date Time (GOES-14) GOES-14 Lat,Lon AQUA Lat,Lon Distance(km) Time Diff (sec)
1 10/22/2023 09:03:40 0.14,-108.61 -0.25,-106.72 214.65 80
2 10/22/2023 21:21:44 -0.11,-108.54 -0.79,-111.75 364.48 80
3 10/24/2023 21:09:34 -0.11,-108.54 -0.03,-108.13 47.27 80
4 10/26/2023 20:54:43 -0.12,-108.55 0.73,-104.50 459.91 80
5 10/27/2023 09:12:38 0.09,-108.62 0.26,-109.49 99.29 80
6 10/29/2023 09:00:26 0.10,-108.62 -0.51,-105.86 313.88 80
7 10/29/2023 21:18:28 -0.08,-108.55 -0.60,-110.87 264.67 80
8 10/31/2023 21:06:15 -0.09,-108.55 0.19,-107.24 148.67 80
9 11/01/2023 09:24:08 0.06,-108.61 0.84,-112.22 410.53 80
10 11/03/2023 09:11:55 0.06,-108.61 0.04,-108.59 4.01 80
